Time,TemperatureF,DewpointF,PressureIn,WindDirection,WindDirectionDegrees,WindSpeedMPH,WindSpeedGustMPH,Humidity,HourlyPrecipIn,Conditions,Clouds,dailyrainin,SoftwareType,DateUTC
2013-03-12 00:01:00,51.2,48.7,29.73,SSW,206,0.0,2.0,91,0.00,,,0.06,Wunderground v.1.15,2013-03-12 04:01:00,
2013-03-12 00:02:00,51.1,48.6,29.73,SSW,196,0.0,2.0,91,0.00,,,0.00,Wunderground v.1.15,2013-03-12 04:02:00,
2013-03-12 00:07:00,51.0,48.5,29.73,SSW,196,0.0,2.0,91,0.00,,,0.00,Wunderground v.1.15,2013-03-12 04:07:00,
2013-03-12 00:08:00,51.0,48.5,29.73,SSW,196,0.0,2.0,91,0.00,,,0.00,Wunderground v.1.15,2013-03-12 04:08:00,
2013-03-12 00:09:00,50.9,48.4,29.73,SW,220,0.0,5.0,91,0.05,,,0.00,Wunderground v.1.15,2013-03-12 04:09:00,
2013-03-12 00:15:00,50.9,48.7,29.73,SW,227,1.0,3.0,92,0.05,,,0.01,Wunderground v.1.15,2013-03-12 04:15:00,
2013-03-12 00:21:00,50.7,48.5,29.74,WSW,247,1.0,1.0,92,0.05,,,0.01,Wunderground v.1.15,2013-03-12 04:21:00,
2013-03-12 00:27:00,50.3,48.6,29.75,WNW,303,0.0,5.0,94,0.19,,,0.03,Wunderground v.1.15,2013-03-12 04:27:00,
2013-03-12 00:32:00,50.0,48.6,29.74,West,262,1.0,7.0,95,0.15,,,0.04,Wunderground v.1.15,2013-03-12 04:32:00,
2013-03-12 00:38:00,49.7,48.6,29.74,South,190,1.0,7.0,96,0.06,,,0.04,Wunderground v.1.15,2013-03-12 04:38:00,
2013-03-12 00:44:00,49.7,48.6,29.74,South,184,2.0,5.0,96,0.38,,,0.07,Wunderground v.1.15,2013-03-12 04:44:00,
2013-03-12 00:50:00,49.9,48.8,29.73,SW,217,3.0,5.0,96,0.30,,,0.09,Wunderground v.1.15,2013-03-12 04:50:00,
2013-03-12 00:56:00,50.0,48.9,29.73,SSW,196,3.0,7.0,96,0.14,,,0.10,Wunderground v.1.15,2013-03-12 04:56:00,
2013-03-12 01:01:00,50.0,48.9,29.73,South,178,3.0,7.0,96,0.09,,,0.11,Wunderground v.1.15,2013-03-12 05:01:00,
2013-03-12 01:07:00,50.1,49.0,29.73,SSW,196,3.0,7.0,96,0.09,,,0.11,Wunderground v.1.15,2013-03-12 05:07:00,
2013-03-12 01:12:00,50.1,49.0,29.73,WSW,239,3.0,6.0,96,0.18,,,0.13,Wunderground v.1.15,2013-03-12 05:12:00,
2013-03-12 01:17:00,50.2,49.1,29.73,SW,222,3.0,6.0,96,0.23,,,0.15,Wunderground v.1.15,2013-03-12 05:17:00,
2013-03-12 01:22:00,50.3,49.2,29.72,SSW,202,4.0,5.0,96,0.26,,,0.17,Wunderground v.1.15,2013-03-12 05:22:00,
2013-03-12 01:28:00,50.3,49.2,29.73,South,189,4.0,9.0,96,0.45,,,0.19,Wunderground v.1.15,2013-03-12 05:28:00,
2013-03-12 01:33:00,50.3,49.2,29.73,ESE,109,5.0,12.0,96,0.11,,,0.19,Wunderground v.1.15,2013-03-12 05:33:00,
2013-03-12 01:39:00,50.4,49.3,29.72,SW,221,6.0,12.0,96,0.10,,,0.20,Wunderground v.1.15,2013-03-12 05:39:00,
2013-03-12 01:45:00,50.4,49.0,29.72,South,181,5.0,11.0,95,0.05,,,0.21,Wunderground v.1.15,2013-03-12 05:45:00,
2013-03-12 01:50:00,50.3,48.9,29.72,NNW,336,4.0,7.0,95,0.05,,,0.21,Wunderground v.1.15,2013-03-12 05:50:00,
2013-03-12 01:56:00,48.3,46.4,29.73,NNW,327,3.0,7.0,93,0.05,,,0.21,Wunderground v.1.15,2013-03-12 05:56:00,
2013-03-12 02:01:00,47.2,45.6,29.74,NNW,331,3.0,4.0,94,0.04,,,0.21,Wunderground v.1.15,2013-03-12 06:01:00,
2013-03-12 02:06:00,46.7,45.6,29.74,West,273,2.0,4.0,96,0.04,,,0.22,Wunderground v.1.15,2013-03-12 06:06:00,
2013-03-12 02:11:00,46.4,45.3,29.74,WNW,282,1.0,1.0,96,0.07,,,0.23,Wunderground v.1.15,2013-03-12 06:11:00,
2013-03-12 02:17:00,45.9,44.8,29.74,WNW,292,2.0,6.0,96,0.07,,,0.23,Wunderground v.1.15,2013-03-12 06:17:00,
2013-03-12 02:22:00,45.3,44.2,29.75,WNW,296,3.0,5.0,96,0.05,,,0.23,Wunderground v.1.15,2013-03-12 06:22:00,
2013-03-12 02:27:00,44.7,43.6,29.75,WNW,288,3.0,5.0,96,0.00,,,0.23,Wunderground v.1.15,2013-03-12 06:27:00,
2013-03-12 02:33:00,44.0,42.9,29.75,WNW,303,3.0,5.0,96,0.00,,,0.23,Wunderground v.1.15,2013-03-12 06:33:00,
2013-03-12 02:38:00,43.4,42.3,29.76,NW,304,4.0,7.0,96,0.00,,,0.23,Wunderground v.1.15,2013-03-12 06:38:00,
2013-03-12 02:44:00,43.1,42.0,29.76,NW,318,4.0,8.0,96,0.00,,,0.23,Wunderground v.1.15,2013-03-12 06:44:00,
2013-03-12 02:49:00,42.8,42.0,29.76,WNW,294,4.0,8.0,97,0.00,,,0.23,Wunderground v.1.15,2013-03-12 06:49:00,
2013-03-12 02:54:00,42.4,41.6,29.76,WSW,252,3.0,4.0,97,0.00,,,0.23,Wunderground v.1.15,2013-03-12 06:54:00,
2013-03-12 03:00:00,41.9,41.1,29.76,WNW,292,2.0,3.0,97,0.00,,,0.24,Wunderground v.1.15,2013-03-12 07:00:00,
2013-03-12 03:06:00,41.8,41.0,29.76,WNW,291,2.0,3.0,97,0.00,,,0.24,Wunderground v.1.15,2013-03-12 07:06:00,
2013-03-12 03:12:00,41.8,41.0,29.77,NW,309,2.0,4.0,97,0.00,,,0.24,Wunderground v.1.15,2013-03-12 07:12:00,
2013-03-12 03:18:00,41.6,40.8,29.77,West,273,2.0,5.0,97,0.00,,,0.24,Wunderground v.1.15,2013-03-12 07:18:00,
2013-03-12 03:23:00,41.4,40.6,29.77,SSW,200,2.0,4.0,97,0.00,,,0.24,Wunderground v.1.15,2013-03-12 07:23:00,
2013-03-12 03:29:00,41.3,40.5,29.77,West,259,1.0,4.0,97,0.00,,,0.24,Wunderground v.1.15,2013-03-12 07:29:00,
2013-03-12 03:34:00,41.1,40.3,29.78,West,261,2.0,2.0,97,0.00,,,0.24,Wunderground v.1.15,2013-03-12 07:34:00,
2013-03-12 03:40:00,41.2,40.4,29.78,West,281,1.0,2.0,97,0.00,,,0.24,Wunderground v.1.15,2013-03-12 07:40:00,
2013-03-12 03:46:00,41.0,40.2,29.78,WSW,239,1.0,4.0,97,0.00,,,0.24,Wunderground v.1.15,2013-03-12 07:46:00,
2013-03-12 03:52:00,41.0,40.2,29.78,WSW,244,2.0,4.0,97,0.00,,,0.24,Wunderground v.1.15,2013-03-12 07:52:00,
2013-03-12 03:58:00,40.9,40.1,29.78,WSW,237,1.0,4.0,97,0.00,,,0.24,Wunderground v.1.15,2013-03-12 07:58:00,
2013-03-12 04:03:00,40.8,40.0,29.78,West,269,1.0,2.0,97,0.00,,,0.25,Wunderground v.1.15,2013-03-12 08:03:00,
2013-03-12 04:09:00,40.6,39.8,29.78,WSW,253,2.0,3.0,97,0.00,,,0.25,Wunderground v.1.15,2013-03-12 08:09:00,
2013-03-12 04:15:00,40.5,39.4,29.78,SSW,210,2.0,7.0,96,0.00,,,0.25,Wunderground v.1.15,2013-03-12 08:15:00,
2013-03-12 04:21:00,40.5,39.4,29.79,WSW,244,1.0,2.0,96,0.00,,,0.25,Wunderground v.1.15,2013-03-12 08:21:00,
2013-03-12 04:27:00,40.4,39.4,29.78,WNW,287,1.0,2.0,96,0.00,,,0.25,Wunderground v.1.15,2013-03-12 08:27:00,
2013-03-12 04:33:00,40.4,39.4,29.78,West,263,1.0,2.0,96,0.00,,,0.26,Wunderground v.1.15,2013-03-12 08:33:00,
2013-03-12 04:39:00,40.2,39.2,29.78,SW,224,1.0,6.0,96,0.00,,,0.26,Wunderground v.1.15,2013-03-12 08:39:00,
2013-03-12 04:44:00,40.1,39.1,29.78,West,259,2.0,3.0,96,0.00,,,0.26,Wunderground v.1.15,2013-03-12 08:44:00,
2013-03-12 04:49:00,40.0,39.0,29.78,SSW,207,2.0,4.0,96,0.00,,,0.26,Wunderground v.1.15,2013-03-12 08:49:00,
2013-03-12 04:55:00,40.0,39.0,29.78,SSW,206,2.0,4.0,96,0.00,,,0.26,Wunderground v.1.15,2013-03-12 08:55:00,
2013-03-12 05:01:00,39.8,38.5,29.78,WSW,250,2.0,3.0,95,0.00,,,0.26,Wunderground v.1.15,2013-03-12 09:01:00,
2013-03-12 05:06:00,39.8,38.5,29.78,SW,225,2.0,3.0,95,0.00,,,0.26,Wunderground v.1.15,2013-03-12 09:06:00,
2013-03-12 05:12:00,39.7,38.4,29.78,SSW,205,2.0,2.0,95,0.00,,,0.26,Wunderground v.1.15,2013-03-12 09:12:00,
2013-03-12 05:17:00,39.6,38.3,29.79,SW,215,1.0,2.0,95,0.00,,,0.26,Wunderground v.1.15,2013-03-12 09:17:00,
2013-03-12 05:23:00,39.5,38.2,29.79,SSW,211,1.0,4.0,95,0.00,,,0.26,Wunderground v.1.15,2013-03-12 09:23:00,
2013-03-12 05:29:00,39.3,37.7,29.80,SSW,213,3.0,10.0,94,0.00,,,0.26,Wunderground v.1.15,2013-03-12 09:29:00,
2013-03-12 05:34:00,39.2,37.6,29.79,SSW,202,3.0,6.0,94,0.00,,,0.26,Wunderground v.1.15,2013-03-12 09:34:00,
2013-03-12 05:40:00,39.1,37.5,29.80,SW,218,3.0,3.0,94,0.00,,,0.26,Wunderground v.1.15,2013-03-12 09:40:00,
2013-03-12 05:46:00,39.1,37.5,29.79,SSE,160,2.0,7.0,94,0.00,,,0.26,Wunderground v.1.15,2013-03-12 09:46:00,
2013-03-12 05:51:00,39.0,37.4,29.80,WSW,237,2.0,5.0,94,0.00,,,0.27,Wunderground v.1.15,2013-03-12 09:51:00,
2013-03-12 05:57:00,38.8,37.2,29.80,SW,235,3.0,5.0,94,0.00,,,0.27,Wunderground v.1.15,2013-03-12 09:57:00,
2013-03-12 06:03:00,38.7,37.4,29.80,SW,234,3.0,7.0,95,0.00,,,0.27,Wunderground v.1.15,2013-03-12 10:03:00,
2013-03-12 06:08:00,38.7,37.4,29.81,SSW,200,3.0,7.0,95,0.00,,,0.28,Wunderground v.1.15,2013-03-12 10:08:00,
2013-03-12 06:14:00,38.6,37.3,29.81,SW,217,2.0,5.0,95,0.00,,,0.28,Wunderground v.1.15,2013-03-12 10:14:00,
2013-03-12 06:19:00,38.5,37.2,29.81,WSW,240,3.0,5.0,95,0.00,,,0.28,Wunderground v.1.15,2013-03-12 10:19:00,
2013-03-12 06:25:00,38.4,37.4,29.81,SW,229,2.0,3.0,96,0.00,,,0.28,Wunderground v.1.15,2013-03-12 10:25:00,
2013-03-12 06:46:00,38.2,37.2,29.82,SW,229,2.0,5.0,96,0.00,,,0.29,Wunderground v.1.15,2013-03-12 10:46:00,
2013-03-12 06:51:00,38.1,37.1,29.81,SW,232,2.0,2.0,96,0.00,,,0.29,Wunderground v.1.15,2013-03-12 10:51:00,
2013-03-12 06:57:00,38.1,37.3,29.81,West,275,2.0,3.0,97,0.00,,,0.29,Wunderground v.1.15,2013-03-12 10:57:00,
2013-03-12 07:03:00,38.0,37.2,29.80,NW,305,2.0,5.0,97,0.00,,,0.29,Wunderground v.1.15,2013-03-12 11:03:00,
2013-03-12 07:08:00,37.9,37.1,29.81,WSW,249,2.0,5.0,97,0.00,,,0.29,Wunderground v.1.15,2013-03-12 11:08:00,
2013-03-12 07:14:00,37.9,37.1,29.81,WSW,243,2.0,10.0,97,0.00,,,0.29,Wunderground v.1.15,2013-03-12 11:14:00,
2013-03-12 07:19:00,37.9,37.1,29.82,WNW,282,2.0,10.0,97,0.00,,,0.29,Wunderground v.1.15,2013-03-12 11:19:00,
2013-03-12 07:25:00,37.8,37.0,29.81,West,273,2.0,4.0,97,0.00,,,0.29,Wunderground v.1.15,2013-03-12 11:25:00,
2013-03-12 07:31:00,37.7,36.9,29.82,WSW,254,2.0,3.0,97,0.00,,,0.29,Wunderground v.1.15,2013-03-12 11:31:00,
2013-03-12 07:37:00,37.6,36.8,29.82,NNW,346,2.0,7.0,97,0.00,,,0.29,Wunderground v.1.15,2013-03-12 11:37:00,
2013-03-12 07:43:00,37.5,37.0,29.82,WSW,248,2.0,3.0,98,0.00,,,0.29,Wunderground v.1.15,2013-03-12 11:43:00,
2013-03-12 07:49:00,37.5,37.0,29.82,SW,214,1.0,4.0,98,0.00,,,0.29,Wunderground v.1.15,2013-03-12 11:49:00,
2013-03-12 07:54:00,37.4,36.9,29.82,WSW,244,1.0,4.0,98,0.00,,,0.29,Wunderground v.1.15,2013-03-12 11:54:00,
2013-03-12 07:59:00,37.3,36.8,29.82,West,279,2.0,4.0,98,0.00,,,0.29,Wunderground v.1.15,2013-03-12 11:59:00,
2013-03-12 08:05:00,37.3,36.8,29.82,WSW,242,2.0,5.0,98,0.00,,,0.29,Wunderground v.1.15,2013-03-12 12:05:00,
2013-03-12 08:10:00,37.2,36.7,29.82,SSW,210,2.0,3.0,98,0.00,,,0.29,Wunderground v.1.15,2013-03-12 12:10:00,
2013-03-12 08:15:00,37.1,36.6,29.83,WSW,241,2.0,4.0,98,0.00,,,0.29,Wunderground v.1.15,2013-03-12 12:15:00,
2013-03-12 08:21:00,37.1,36.6,29.83,WSW,253,1.0,1.0,98,0.00,,,0.29,Wunderground v.1.15,2013-03-12 12:21:00,
2013-03-12 08:26:00,37.1,36.6,29.83,WNW,288,1.0,4.0,98,0.00,,,0.29,Wunderground v.1.15,2013-03-12 12:26:00,
2013-03-12 08:32:00,36.8,36.3,29.84,NW,307,2.0,6.0,98,0.00,,,0.29,Wunderground v.1.15,2013-03-12 12:32:00,
2013-03-12 08:38:00,36.5,36.0,29.84,WSW,248,2.0,6.0,98,0.00,,,0.29,Wunderground v.1.15,2013-03-12 12:38:00,
2013-03-12 08:44:00,36.1,35.6,29.85,SSW,210,3.0,7.0,98,0.00,,,0.29,Wunderground v.1.15,2013-03-12 12:44:00,
2013-03-12 08:50:00,35.7,34.9,29.85,NNW,333,2.0,5.0,97,0.00,,,0.29,Wunderground v.1.15,2013-03-12 12:50:00,
2013-03-12 08:55:00,35.3,34.8,29.85,SW,233,2.0,7.0,98,0.00,,,0.29,Wunderground v.1.15,2013-03-12 12:55:00,
2013-03-12 09:01:00,35.1,34.6,29.85,WSW,245,2.0,2.0,98,0.00,,,0.29,Wunderground v.1.15,2013-03-12 13:01:00,
2013-03-12 09:06:00,35.1,34.6,29.85,WSW,257,1.0,2.0,98,0.00,,,0.29,Wunderground v.1.15,2013-03-12 13:06:00,
2013-03-12 09:12:00,35.0,34.5,29.86,West,265,1.0,2.0,98,0.00,,,0.29,Wunderground v.1.15,2013-03-12 13:12:00,
2013-03-12 09:17:00,34.8,34.3,29.86,WNW,291,2.0,5.0,98,0.00,,,0.30,Wunderground v.1.15,2013-03-12 13:17:00,
2013-03-12 09:23:00,34.8,34.3,29.86,SW,234,2.0,5.0,98,0.00,,,0.30,Wunderground v.1.15,2013-03-12 13:23:00,
2013-03-12 09:28:00,34.7,34.2,29.86,WNW,294,2.0,5.0,98,0.00,,,0.30,Wunderground v.1.15,2013-03-12 13:28:00,
2013-03-12 09:34:00,34.7,34.2,29.86,WNW,285,2.0,6.0,98,0.00,,,0.30,Wunderground v.1.15,2013-03-12 13:34:00,
2013-03-12 09:40:00,34.6,33.8,29.86,NW,324,2.0,5.0,97,0.00,,,0.30,Wunderground v.1.15,2013-03-12 13:40:00,
2013-03-12 09:46:00,34.6,33.8,29.86,West,278,2.0,5.0,97,0.00,,,0.30,Wunderground v.1.15,2013-03-12 13:46:00,
2013-03-12 09:51:00,34.7,33.9,29.87,SW,215,2.0,3.0,97,0.00,,,0.30,Wunderground v.1.15,2013-03-12 13:51:00,
2013-03-12 09:56:00,34.7,34.2,29.87,SW,229,2.0,3.0,98,0.00,,,0.30,Wunderground v.1.15,2013-03-12 13:56:00,
2013-03-12 10:01:00,34.6,34.1,29.87,WNW,286,2.0,3.0,98,0.00,,,0.30,Wunderground v.1.15,2013-03-12 14:01:00,
2013-03-12 10:07:00,34.4,33.6,29.87,West,259,3.0,4.0,97,0.00,,,0.30,Wunderground v.1.15,2013-03-12 14:07:00,
2013-03-12 10:13:00,34.3,33.5,29.87,WSW,243,2.0,3.0,97,0.00,,,0.30,Wunderground v.1.15,2013-03-12 14:13:00,
2013-03-12 10:18:00,34.1,33.6,29.87,WSW,252,2.0,3.0,98,0.00,,,0.30,Wunderground v.1.15,2013-03-12 14:18:00,
2013-03-12 10:24:00,34.1,33.6,29.88,West,265,2.0,3.0,98,0.00,,,0.30,Wunderground v.1.15,2013-03-12 14:24:00,
2013-03-12 10:29:00,34.1,33.3,29.87,West,259,2.0,7.0,97,0.00,,,0.30,Wunderground v.1.15,2013-03-12 14:29:00,
2013-03-12 10:35:00,34.1,33.6,29.87,SW,220,2.0,4.0,98,0.00,,,0.30,Wunderground v.1.15,2013-03-12 14:35:00,
2013-03-12 10:41:00,34.3,33.5,29.87,SSW,211,3.0,3.0,97,0.00,,,0.30,Wunderground v.1.15,2013-03-12 14:41:00,
2013-03-12 10:46:00,34.4,33.6,29.87,SW,231,2.0,3.0,97,0.00,,,0.30,Wunderground v.1.15,2013-03-12 14:46:00,
2013-03-12 10:51:00,34.5,33.7,29.87,SSW,203,1.0,5.0,97,0.00,,,0.30,Wunderground v.1.15,2013-03-12 14:51:00,
2013-03-12 10:57:00,34.6,33.8,29.87,WSW,252,1.0,5.0,97,0.00,,,0.30,Wunderground v.1.15,2013-03-12 14:57:00,
2013-03-12 11:02:00,34.6,33.8,29.87,WSW,250,1.0,5.0,97,0.00,,,0.30,Wunderground v.1.15,2013-03-12 15:02:00,
2013-03-12 11:07:00,34.5,33.5,29.87,West,272,2.0,5.0,96,0.00,,,0.30,Wunderground v.1.15,2013-03-12 15:07:00,
2013-03-12 11:13:00,34.6,33.6,29.88,West,263,2.0,4.0,96,0.00,,,0.30,Wunderground v.1.15,2013-03-12 15:13:00,
2013-03-12 11:19:00,34.6,33.6,29.88,WNW,286,2.0,4.0,96,0.00,,,0.30,Wunderground v.1.15,2013-03-12 15:19:00,
2013-03-12 11:25:00,34.6,33.6,29.88,SSW,203,1.0,6.0,96,0.00,,,0.30,Wunderground v.1.15,2013-03-12 15:25:00,
2013-03-12 11:30:00,34.5,33.2,29.88,NW,316,2.0,2.0,95,0.00,,,0.30,Wunderground v.1.15,2013-03-12 15:30:00,
2013-03-12 11:36:00,34.6,33.3,29.88,SW,229,2.0,4.0,95,0.00,,,0.30,Wunderground v.1.15,2013-03-12 15:36:00,
2013-03-12 11:42:00,34.6,33.3,29.88,WNW,285,2.0,4.0,95,0.00,,,0.30,Wunderground v.1.15,2013-03-12 15:42:00,
2013-03-12 11:48:00,34.8,33.5,29.88,WSW,248,2.0,5.0,95,0.00,,,0.30,Wunderground v.1.15,2013-03-12 15:48:00,
2013-03-12 11:54:00,34.8,33.2,29.88,West,280,2.0,4.0,94,0.00,,,0.30,Wunderground v.1.15,2013-03-12 15:54:00,
2013-03-12 12:00:00,34.8,33.2,29.88,SW,234,2.0,4.0,94,0.00,,,0.30,Wunderground v.1.15,2013-03-12 16:00:00,
2013-03-12 12:06:00,34.8,33.2,29.88,WNW,292,2.0,4.0,94,0.00,,,0.30,Wunderground v.1.15,2013-03-12 16:06:00,
2013-03-12 12:11:00,34.8,33.2,29.87,WSW,254,2.0,2.0,94,0.00,,,0.30,Wunderground v.1.15,2013-03-12 16:11:00,
2013-03-12 12:17:00,34.8,33.2,29.88,NW,313,2.0,4.0,94,0.00,,,0.30,Wunderground v.1.15,2013-03-12 16:17:00,
2013-03-12 12:23:00,34.7,32.9,29.88,WSW,252,3.0,6.0,93,0.00,,,0.30,Wunderground v.1.15,2013-03-12 16:23:00,
2013-03-12 12:29:00,34.8,33.2,29.88,WNW,303,2.0,6.0,94,0.00,,,0.30,Wunderground v.1.15,2013-03-12 16:29:00,
2013-03-12 12:35:00,34.7,33.2,29.88,West,268,2.0,4.0,94,0.00,,,0.30,Wunderground v.1.15,2013-03-12 16:35:00,
2013-03-12 12:41:00,34.6,33.1,29.88,West,270,2.0,4.0,94,0.00,,,0.30,Wunderground v.1.15,2013-03-12 16:41:00,
2013-03-12 12:46:00,34.6,32.8,29.88,WSW,241,3.0,5.0,93,0.00,,,0.30,Wunderground v.1.15,2013-03-12 16:46:00,
2013-03-12 12:52:00,34.6,32.2,29.88,West,271,3.0,7.0,91,0.00,,,0.30,Wunderground v.1.15,2013-03-12 16:52:00,
2013-03-12 12:58:00,34.7,32.3,29.88,NW,325,3.0,7.0,91,0.00,,,0.30,Wunderground v.1.15,2013-03-12 16:58:00,
2013-03-12 13:04:00,34.8,32.2,29.89,West,259,3.0,7.0,90,0.00,,,0.30,Wunderground v.1.15,2013-03-12 17:04:00,
2013-03-12 13:09:00,34.8,31.9,29.88,WSW,256,4.0,7.0,89,0.00,,,0.30,Wunderground v.1.15,2013-03-12 17:09:00,
2013-03-12 13:15:00,34.8,31.9,29.88,West,273,4.0,11.0,89,0.00,,,0.30,Wunderground v.1.15,2013-03-12 17:15:00,
2013-03-12 13:20:00,35.0,32.4,29.88,West,264,3.0,11.0,90,0.00,,,0.30,Wunderground v.1.15,2013-03-12 17:20:00,
2013-03-12 13:25:00,35.2,32.3,29.88,SW,226,4.0,11.0,89,0.00,,,0.30,Wunderground v.1.15,2013-03-12 17:25:00,
2013-03-12 13:31:00,35.4,32.8,29.88,West,261,3.0,4.0,90,0.00,,,0.30,Wunderground v.1.15,2013-03-12 17:31:00,
2013-03-12 13:36:00,35.3,32.4,29.88,SW,234,3.0,4.0,89,0.00,,,0.30,Wunderground v.1.15,2013-03-12 17:36:00,
2013-03-12 13:42:00,35.4,32.8,29.87,West,271,2.0,3.0,90,0.00,,,0.30,Wunderground v.1.15,2013-03-12 17:42:00,
2013-03-12 13:48:00,35.4,32.5,29.88,West,268,2.0,6.0,89,0.00,,,0.30,Wunderground v.1.15,2013-03-12 17:48:00,
2013-03-12 13:53:00,35.4,32.8,29.88,West,281,2.0,5.0,90,0.00,,,0.30,Wunderground v.1.15,2013-03-12 17:53:00,
2013-03-12 13:59:00,35.5,32.6,29.89,West,271,2.0,5.0,89,0.00,,,0.30,Wunderground v.1.15,2013-03-12 17:59:00,
2013-03-12 14:05:00,35.7,32.5,29.88,WSW,246,3.0,6.0,88,0.00,,,0.30,Wunderground v.1.15,2013-03-12 18:05:00,
2013-03-12 14:11:00,35.8,32.3,29.88,West,273,4.0,8.0,87,0.00,,,0.30,Wunderground v.1.15,2013-03-12 18:11:00,
2013-03-12 14:16:00,35.8,32.6,29.89,West,279,4.0,12.0,88,0.00,,,0.30,Wunderground v.1.15,2013-03-12 18:16:00,
2013-03-12 14:22:00,35.4,32.2,29.89,West,275,4.0,7.0,88,0.00,,,0.30,Wunderground v.1.15,2013-03-12 18:22:00,
2013-03-12 14:28:00,35.2,32.3,29.89,West,281,5.0,9.0,89,0.00,,,0.30,Wunderground v.1.15,2013-03-12 18:28:00,
2013-03-12 14:34:00,35.0,32.4,29.89,West,272,4.0,6.0,90,0.00,,,0.30,Wunderground v.1.15,2013-03-12 18:34:00,
2013-03-12 14:40:00,34.7,32.1,29.89,WSW,253,4.0,4.0,90,0.00,,,0.30,Wunderground v.1.15,2013-03-12 18:40:00,
2013-03-12 14:46:00,34.5,31.9,29.89,NNW,344,4.0,5.0,90,0.00,,,0.30,Wunderground v.1.15,2013-03-12 18:46:00,
2013-03-12 14:52:00,34.3,31.4,29.89,West,265,4.0,6.0,89,0.00,,,0.30,Wunderground v.1.15,2013-03-12 18:52:00,
2013-03-12 14:58:00,34.4,31.8,29.89,WNW,301,3.0,6.0,90,0.00,,,0.30,Wunderground v.1.15,2013-03-12 18:58:00,
2013-03-12 15:03:00,34.6,32.0,29.89,West,268,3.0,8.0,90,0.00,,,0.30,Wunderground v.1.15,2013-03-12 19:03:00,
2013-03-12 15:09:00,35.0,32.1,29.90,WSW,255,3.0,8.0,89,0.00,,,0.30,Wunderground v.1.15,2013-03-12 19:09:00,
2013-03-12 15:14:00,35.1,31.9,29.90,West,269,3.0,4.0,88,0.00,,,0.30,Wunderground v.1.15,2013-03-12 19:14:00,
2013-03-12 15:19:00,35.0,31.5,29.90,WNW,286,3.0,6.0,87,0.00,,,0.30,Wunderground v.1.15,2013-03-12 19:19:00,
2013-03-12 15:24:00,34.8,31.6,29.90,WSW,240,3.0,5.0,88,0.00,,,0.30,Wunderground v.1.15,2013-03-12 19:24:00,
2013-03-12 15:29:00,34.7,31.2,29.90,SW,234,4.0,14.0,87,0.00,,,0.30,Wunderground v.1.15,2013-03-12 19:29:00,
2013-03-12 15:35:00,34.7,30.9,29.90,WNW,296,5.0,11.0,86,0.00,,,0.30,Wunderground v.1.15,2013-03-12 19:35:00,
2013-03-12 15:42:00,34.6,31.1,29.90,SSW,199,5.0,6.0,87,0.00,,,0.30,Wunderground v.1.15,2013-03-12 19:42:00,
2013-03-12 15:47:00,34.6,31.1,29.90,SW,236,4.0,9.0,87,0.00,,,0.30,Wunderground v.1.15,2013-03-12 19:47:00,
2013-03-12 15:52:00,34.6,31.1,29.90,NNW,345,4.0,4.0,87,0.00,,,0.30,Wunderground v.1.15,2013-03-12 19:52:00,
2013-03-12 15:58:00,34.6,30.8,29.90,WNW,285,4.0,6.0,86,0.00,,,0.30,Wunderground v.1.15,2013-03-12 19:58:00,
2013-03-12 16:04:00,34.8,31.3,29.90,WNW,299,3.0,5.0,87,0.00,,,0.30,Wunderground v.1.15,2013-03-12 20:04:00,
2013-03-12 16:10:00,35.0,31.5,29.89,WSW,242,3.0,3.0,87,0.00,,,0.30,Wunderground v.1.15,2013-03-12 20:10:00,
2013-03-12 16:16:00,35.0,31.2,29.90,WSW,246,2.0,16.0,86,0.00,,,0.30,Wunderground v.1.15,2013-03-12 20:16:00,
2013-03-12 16:22:00,34.8,31.3,29.90,WNW,285,3.0,5.0,87,0.00,,,0.31,Wunderground v.1.15,2013-03-12 20:22:00,
2013-03-12 16:28:00,34.5,31.6,29.90,West,267,3.0,6.0,89,0.00,,,0.31,Wunderground v.1.15,2013-03-12 20:28:00,
2013-03-12 16:34:00,34.2,31.3,29.91,WSW,257,3.0,6.0,89,0.00,,,0.31,Wunderground v.1.15,2013-03-12 20:34:00,
2013-03-12 16:40:00,34.1,31.2,29.91,WNW,298,4.0,9.0,89,0.00,,,0.31,Wunderground v.1.15,2013-03-12 20:40:00,
2013-03-12 16:46:00,34.1,31.5,29.91,West,267,3.0,9.0,90,0.00,,,0.31,Wunderground v.1.15,2013-03-12 20:46:00,
2013-03-12 16:51:00,33.9,31.3,29.91,WSW,244,4.0,7.0,90,0.00,,,0.31,Wunderground v.1.15,2013-03-12 20:51:00,
2013-03-12 16:57:00,33.9,31.3,29.91,WNW,290,4.0,7.0,90,0.00,,,0.31,Wunderground v.1.15,2013-03-12 20:57:00,
2013-03-12 17:03:00,33.9,31.3,29.91,NW,306,2.0,5.0,90,0.00,,,0.31,Wunderground v.1.15,2013-03-12 21:03:00,
2013-03-12 17:09:00,34.1,31.5,29.91,NW,319,2.0,5.0,90,0.00,,,0.31,Wunderground v.1.15,2013-03-12 21:09:00,
2013-03-12 17:14:00,34.1,31.2,29.92,WNW,284,3.0,9.0,89,0.00,,,0.31,Wunderground v.1.15,2013-03-12 21:14:00,
2013-03-12 17:19:00,34.1,30.9,29.92,West,279,4.0,9.0,88,0.00,,,0.31,Wunderground v.1.15,2013-03-12 21:19:00,
2013-03-12 17:25:00,34.2,30.7,29.92,WNW,295,4.0,7.0,87,0.00,,,0.31,Wunderground v.1.15,2013-03-12 21:25:00,
2013-03-12 17:31:00,34.2,30.7,29.92,NW,312,3.0,6.0,87,0.00,,,0.31,Wunderground v.1.15,2013-03-12 21:31:00,
2013-03-12 17:37:00,34.2,30.7,29.93,West,263,4.0,9.0,87,0.00,,,0.31,Wunderground v.1.15,2013-03-12 21:37:00,
2013-03-12 17:43:00,34.1,30.6,29.93,WSW,256,3.0,4.0,87,0.00,,,0.31,Wunderground v.1.15,2013-03-12 21:43:00,
2013-03-12 17:48:00,34.1,30.4,29.93,WNW,292,4.0,9.0,86,0.00,,,0.31,Wunderground v.1.15,2013-03-12 21:48:00,
2013-03-12 17:54:00,34.2,30.4,29.93,West,271,3.0,5.0,86,0.00,,,0.31,Wunderground v.1.15,2013-03-12 21:54:00,
2013-03-12 17:59:00,34.2,30.4,29.93,WSW,249,3.0,6.0,86,0.00,,,0.31,Wunderground v.1.15,2013-03-12 21:59:00,
2013-03-12 18:05:00,34.2,30.2,29.93,West,268,3.0,7.0,85,0.00,,,0.31,Wunderground v.1.15,2013-03-12 22:05:00,
2013-03-12 18:10:00,34.3,30.3,29.93,SW,215,4.0,4.0,85,0.00,,,0.31,Wunderground v.1.15,2013-03-12 22:10:00,
2013-03-12 18:16:00,34.2,29.9,29.93,West,265,3.0,7.0,84,0.00,,,0.31,Wunderground v.1.15,2013-03-12 22:16:00,
2013-03-12 18:22:00,34.2,29.9,29.94,NW,311,4.0,5.0,84,0.00,,,0.31,Wunderground v.1.15,2013-03-12 22:22:00,
2013-03-12 18:28:00,34.1,29.8,29.94,SW,229,3.0,5.0,84,0.00,,,0.31,Wunderground v.1.15,2013-03-12 22:28:00,
2013-03-12 18:34:00,34.2,29.6,29.94,West,260,3.0,5.0,83,0.00,,,0.31,Wunderground v.1.15,2013-03-12 22:34:00,
2013-03-12 18:39:00,34.2,29.9,29.94,WNW,288,3.0,5.0,84,0.00,,,0.31,Wunderground v.1.15,2013-03-12 22:39:00,
2013-03-12 18:45:00,34.2,29.9,29.94,WSW,249,2.0,4.0,84,0.00,,,0.31,Wunderground v.1.15,2013-03-12 22:45:00,
2013-03-12 18:50:00,34.2,29.9,29.94,WNW,284,1.0,4.0,84,0.00,,,0.31,Wunderground v.1.15,2013-03-12 22:50:00,
2013-03-12 18:56:00,34.2,29.9,29.95,WSW,237,1.0,4.0,84,0.00,,,0.31,Wunderground v.1.15,2013-03-12 22:56:00,
2013-03-12 19:02:00,34.2,29.9,29.95,SW,227,1.0,3.0,84,0.00,,,0.31,Wunderground v.1.15,2013-03-12 23:02:00,
2013-03-12 19:08:00,34.1,29.5,29.95,NW,313,3.0,6.0,83,0.00,,,0.31,Wunderground v.1.15,2013-03-12 23:08:00,
2013-03-12 19:14:00,34.1,29.5,29.95,WSW,251,3.0,5.0,83,0.00,,,0.31,Wunderground v.1.15,2013-03-12 23:14:00,
2013-03-12 19:20:00,34.1,29.8,29.96,West,260,3.0,3.0,84,0.00,,,0.31,Wunderground v.1.15,2013-03-12 23:20:00,
2013-03-12 19:25:00,34.0,29.7,29.96,WNW,301,2.0,3.0,84,0.00,,,0.31,Wunderground v.1.15,2013-03-12 23:25:00,
2013-03-12 19:30:00,34.0,29.7,29.96,WSW,256,2.0,2.0,84,0.00,,,0.31,Wunderground v.1.15,2013-03-12 23:30:00,
2013-03-12 19:36:00,34.0,29.4,29.96,West,273,3.0,3.0,83,0.00,,,0.31,Wunderground v.1.15,2013-03-12 23:36:00,
2013-03-12 19:42:00,33.9,29.3,29.97,West,271,3.0,7.0,83,0.00,,,0.31,Wunderground v.1.15,2013-03-12 23:42:00,
2013-03-12 19:48:00,33.9,29.3,29.97,WSW,247,3.0,7.0,83,0.00,,,0.31,Wunderground v.1.15,2013-03-12 23:48:00,
2013-03-12 19:54:00,33.9,29.3,29.97,SW,226,3.0,6.0,83,0.00,,,0.31,Wunderground v.1.15,2013-03-12 23:54:00,
2013-03-12 19:59:00,33.9,29.3,29.97,WSW,249,3.0,6.0,83,0.00,,,0.31,Wunderground v.1.15,2013-03-12 23:59:00,
2013-03-12 20:04:00,33.9,29.3,29.97,WSW,249,3.0,3.0,83,0.00,,,0.31,Wunderground v.1.15,2013-03-13 00:04:00,
2013-03-12 20:10:00,33.9,29.3,29.97,WSW,242,2.0,2.0,83,0.00,,,0.31,Wunderground v.1.15,2013-03-13 00:10:00,
2013-03-12 20:16:00,33.9,29.3,29.98,West,268,2.0,4.0,83,0.00,,,0.31,Wunderground v.1.15,2013-03-13 00:16:00,
2013-03-12 20:21:00,33.9,29.6,29.98,NNW,332,1.0,5.0,84,0.00,,,0.31,Wunderground v.1.15,2013-03-13 00:21:00,
2013-03-12 20:27:00,33.8,29.2,29.98,NW,304,2.0,6.0,83,0.00,,,0.31,Wunderground v.1.15,2013-03-13 00:27:00,
2013-03-12 20:33:00,33.8,29.2,29.98,West,269,2.0,2.0,83,0.00,,,0.31,Wunderground v.1.15,2013-03-13 00:33:00,
2013-03-12 20:39:00,33.8,29.5,29.98,WNW,282,2.0,4.0,84,0.00,,,0.31,Wunderground v.1.15,2013-03-13 00:39:00,
2013-03-12 20:45:00,33.7,29.4,29.98,WSW,238,1.0,2.0,84,0.00,,,0.31,Wunderground v.1.15,2013-03-13 00:45:00,
2013-03-12 20:51:00,33.7,29.4,29.98,NW,304,1.0,1.0,84,0.00,,,0.31,Wunderground v.1.15,2013-03-13 00:51:00,
2013-03-12 20:57:00,33.7,29.7,29.98,WNW,298,1.0,6.0,85,0.00,,,0.31,Wunderground v.1.15,2013-03-13 00:57:00,
2013-03-12 21:02:00,33.6,29.3,29.98,WNW,292,2.0,2.0,84,0.00,,,0.31,Wunderground v.1.15,2013-03-13 01:02:00,
2013-03-12 21:08:00,33.6,29.3,29.98,NW,321,2.0,2.0,84,0.00,,,0.31,Wunderground v.1.15,2013-03-13 01:08:00,
2013-03-12 21:14:00,33.7,29.4,29.98,WSW,258,2.0,4.0,84,0.00,,,0.31,Wunderground v.1.15,2013-03-13 01:14:00,
2013-03-12 21:19:00,33.6,29.3,29.99,WSW,240,2.0,5.0,84,0.00,,,0.31,Wunderground v.1.15,2013-03-13 01:19:00,
2013-03-12 21:25:00,33.6,29.3,29.99,WSW,242,2.0,5.0,84,0.00,,,0.31,Wunderground v.1.15,2013-03-13 01:25:00,
2013-03-12 21:31:00,33.6,29.3,29.99,NW,321,2.0,3.0,84,0.00,,,0.31,Wunderground v.1.15,2013-03-13 01:31:00,
2013-03-12 21:36:00,33.6,29.0,29.99,West,261,2.0,3.0,83,0.00,,,0.31,Wunderground v.1.15,2013-03-13 01:36:00,
2013-03-12 21:42:00,33.6,29.3,29.99,West,263,2.0,3.0,84,0.00,,,0.31,Wunderground v.1.15,2013-03-13 01:42:00,
2013-03-12 21:48:00,33.6,29.3,30.00,West,259,2.0,6.0,84,0.00,,,0.31,Wunderground v.1.15,2013-03-13 01:48:00,
2013-03-12 21:54:00,33.6,29.3,30.00,West,277,2.0,6.0,84,0.00,,,0.31,Wunderground v.1.15,2013-03-13 01:54:00,
2013-03-12 21:59:00,33.7,29.1,30.00,WSW,248,2.0,6.0,83,0.00,,,0.31,Wunderground v.1.15,2013-03-13 01:59:00,
2013-03-12 22:05:00,33.7,28.5,30.00,West,277,3.0,5.0,81,0.00,,,0.31,Wunderground v.1.15,2013-03-13 02:05:00,
2013-03-12 22:11:00,33.7,27.9,30.00,WSW,246,3.0,10.0,79,0.00,,,0.31,Wunderground v.1.15,2013-03-13 02:11:00,
2013-03-12 22:17:00,33.8,28.0,30.01,WNW,286,3.0,10.0,79,0.00,,,0.31,Wunderground v.1.15,2013-03-13 02:17:00,
2013-03-12 22:23:00,33.8,27.7,30.01,West,272,3.0,4.0,78,0.00,,,0.31,Wunderground v.1.15,2013-03-13 02:23:00,
2013-03-12 22:29:00,33.8,27.7,30.01,WSW,253,3.0,5.0,78,0.00,,,0.31,Wunderground v.1.15,2013-03-13 02:29:00,
2013-03-12 22:34:00,33.8,28.0,30.01,WNW,294,3.0,3.0,79,0.00,,,0.31,Wunderground v.1.15,2013-03-13 02:34:00,
2013-03-12 22:40:00,33.7,27.9,30.01,NNW,335,2.0,3.0,79,0.00,,,0.31,Wunderground v.1.15,2013-03-13 02:40:00,
2013-03-12 22:46:00,33.8,27.7,30.01,West,272,3.0,4.0,78,0.00,,,0.31,Wunderground v.1.15,2013-03-13 02:46:00,
2013-03-12 22:52:00,33.8,27.7,30.01,WSW,246,2.0,9.0,78,0.00,,,0.31,Wunderground v.1.15,2013-03-13 02:52:00,
2013-03-12 22:57:00,33.8,27.4,30.02,SSW,198,3.0,9.0,77,0.00,,,0.31,Wunderground v.1.15,2013-03-13 02:57:00,
2013-03-12 23:03:00,33.8,27.4,30.02,West,276,3.0,3.0,77,0.00,,,0.31,Wunderground v.1.15,2013-03-13 03:03:00,
2013-03-12 23:09:00,33.8,27.4,30.02,West,281,2.0,4.0,77,0.00,,,0.31,Wunderground v.1.15,2013-03-13 03:09:00,
2013-03-12 23:14:00,33.7,27.6,30.02,NW,321,2.0,2.0,78,0.00,,,0.31,Wunderground v.1.15,2013-03-13 03:14:00,
2013-03-12 23:19:00,33.7,27.3,30.02,WNW,303,3.0,5.0,77,0.00,,,0.31,Wunderground v.1.15,2013-03-13 03:19:00,
2013-03-12 23:25:00,33.7,27.3,30.02,WNW,289,3.0,5.0,77,0.00,,,0.31,Wunderground v.1.15,2013-03-13 03:25:00,
2013-03-12 23:31:00,33.6,27.5,30.02,WNW,289,2.0,2.0,78,0.00,,,0.31,Wunderground v.1.15,2013-03-13 03:31:00,
2013-03-12 23:37:00,33.6,27.5,30.02,WSW,254,2.0,5.0,78,0.00,,,0.31,Wunderground v.1.15,2013-03-13 03:37:00,
2013-03-12 23:42:00,33.6,27.2,30.02,WSW,254,2.0,7.0,77,0.00,,,0.31,Wunderground v.1.15,2013-03-13 03:42:00,
2013-03-12 23:47:00,33.6,27.2,30.02,WSW,251,2.0,7.0,77,0.00,,,0.31,Wunderground v.1.15,2013-03-13 03:47:00,
2013-03-12 23:53:00,33.6,27.5,30.02,West,279,2.0,2.0,78,0.00,,,0.31,Wunderground v.1.15,2013-03-13 03:53:00,
2013-03-12 23:58:00,33.5,27.4,30.02,WSW,246,2.0,3.0,78,0.00,,,0.31,Wunderground v.1.15,2013-03-13 03:58:00,